Location: Cudham
(51.3000°N, 0.0667°E)
Time: 07:27:48
(UTC+00:00)

USA 234 - Pass Details

Date: 19 May 2025
Orbit: 1097 x 1111 km, 123.0° (Epoch: 13 June)

Event Time Altitude Azimuth Distance (km) Brightness Sun altitude
Rises 22:31:54 0° 62° (ENE) 3,922 6.3 -16.4°
Reaches altitude 10° 22:34:22 10° 61° (ENE) 2,965 5.6 -16.5°
Maximum altitude 22:40:54 74° 339° (NNW) 1,150 3.5 -16.8°
Drops below altitude 10° 22:47:26 10° 255° (WSW) 2,968 5.6 -17.1°
Sets 22:49:55 0° 254° (WSW) 3,926 6.2 -17.2°
